Weather History for KESN - June, 2013

Change the Weather History Date:

Sunday, June 23, 2013

  Actual Average Record
Temperature  
Mean Temperature 74 °F -  
Max Temperature 82 °F 84 °F 93 °F (1965)
Min Temperature 66 °F 62 °F 51 °F (1972)
Cooling Degree Days 9    
Growing Degree Days 24 (Base 50)    
Moisture  
Dew Point 68 °F    
Average Humidity 87    
Maximum Humidity 100    
Minimum Humidity 74    
Precipitation  
Precipitation 0.00 in - - ()
Sea Level Pressure  
Sea Level Pressure 30.20 in    
Wind  
Wind Speed 3 mph (SSW)    
Max Wind Speed 16 mph    
Max Gust Speed 23 mph    
Visibility 10 miles    
Events Rain    
Averages and records for this station are not official NWS values.
T = Trace of Precipitation, MM = Missing Value Source: NWS Daily Summary

Daily Weather History Graph

Daily Weather History Graph

Search for Another Location

Airport or City:

Trip Planner

Search our weather history database for the weather conditions in past years. The results will help you decide how hot, cold, wet, or windy it might be!

Date:

Astronomy

Jun. 23, 2013 Rise Set
Actual Time 5:39 AM EDT 8:33 PM EDT
Civil Twilight 5:07 AM EDT 9:05 PM EDT
Nautical Twilight 4:27 AM EDT 9:45 PM EDT
Astronomical Twilight 3:41 AM EDT 10:31 PM EDT
Moon 8:44 PM EDT (6/23) 5:54 AM EDT (6/23)
Length of Visible Light 15h 57m
Length of Day
14h 53m
Full, 100% of the Moon is Illuminated
Jun 23
Full
Jun 30
Last Quarter
Jul 8
New
Jul 15
First Quarter
Jul 22
Full

Hourly Weather History & Observations

Time (EDT) Temp. Heat Index Dew Point Humidity Pressure Visibility Wind Dir Wind Speed Gust Speed Precip Events Conditions
12:03 AM 71.6 °F - 63.5 °F 76% 30.22 in 10.0 mi SSW 9.2 mph - N/A   Clear
12:23 AM 71.6 °F - 63.3 °F 75% 30.22 in 10.0 mi Calm Calm - N/A   Clear
12:43 AM 70.9 °F - 63.7 °F 78% 30.23 in 10.0 mi Calm Calm - N/A   Clear
1:03 AM 71.2 °F - 63.7 °F 77% 30.23 in 10.0 mi SSW 8.1 mph - N/A   Clear
1:23 AM 70.9 °F - 63.7 °F 78% 30.23 in 10.0 mi Calm Calm - N/A   Clear
1:43 AM 70.3 °F - 63.5 °F 79% 30.24 in 10.0 mi Calm Calm - N/A   Clear
2:03 AM 70.0 °F - 63.7 °F 80% 30.24 in 10.0 mi Calm Calm - N/A   Clear
2:23 AM 69.1 °F - 64.6 °F 86% 30.24 in 10.0 mi Calm Calm - N/A   Clear
2:43 AM 68.0 °F - 64.4 °F 88% 30.23 in 10.0 mi Calm Calm - N/A   Clear
3:03 AM 67.1 °F - 64.0 °F 90% 30.22 in 10.0 mi Calm Calm - N/A   Clear
3:23 AM 66.7 °F - 64.4 °F 92% 30.21 in 10.0 mi Calm Calm - N/A   Clear
3:44 AM 67.1 °F - 64.4 °F 91% 30.21 in 10.0 mi Calm Calm - N/A   Clear
4:04 AM 67.3 °F - 64.0 °F 89% 30.21 in 10.0 mi Calm Calm - N/A   Clear
4:24 AM 67.1 °F - 63.9 °F 89% 30.20 in 10.0 mi Calm Calm - N/A   Clear
4:44 AM 67.1 °F - 64.2 °F 90% 30.21 in 10.0 mi Calm Calm - N/A   Clear
5:04 AM 66.9 °F - 63.7 °F 89% 30.21 in 10.0 mi Calm Calm - N/A   Clear
5:24 AM 66.9 °F - 63.9 °F 90% 30.21 in 10.0 mi Calm Calm - N/A   Clear
5:44 AM 66.6 °F - 63.7 °F 90% 30.22 in 10.0 mi Calm Calm - N/A   Scattered Clouds
5:53 AM 66.2 °F - 64.4 °F 94% 30.22 in 10.0 mi Calm Calm - N/A   Mostly Cloudy
6:04 AM 66.7 °F - 63.7 °F 90% 30.23 in 10.0 mi Calm Calm - N/A   Scattered Clouds
6:24 AM 67.3 °F - 63.7 °F 88% 30.22 in 10.0 mi Calm Calm - N/A   Clear
6:44 AM 68.0 °F - 63.9 °F 87% 30.23 in 10.0 mi Calm Calm - N/A   Scattered Clouds
6:50 AM 68.0 °F - 64.4 °F 88% 30.24 in 10.0 mi Calm Calm - N/A   Overcast
7:04 AM 69.1 °F - 64.6 °F 86% 30.24 in 10.0 mi Calm Calm - N/A   Scattered Clouds
7:24 AM 70.9 °F - 65.5 °F 83% 30.23 in 10.0 mi Calm Calm - N/A   Clear
7:42 AM 70.9 °F - 66.2 °F 85% 30.23 in 10.0 mi Calm Calm - N/A   Clear
7:56 AM 73.4 °F - 68.0 °F 83% 30.22 in 10.0 mi Calm Calm - N/A   Overcast
8:50 AM 71.6 °F - 69.8 °F 94% 30.23 in 6.0 mi Calm Calm - N/A Rain Light Rain
9:48 AM 75.2 °F - 73.4 °F 94% 30.21 in 7.0 mi Calm Calm - N/A   Overcast
10:01 AM 75.2 °F - 71.6 °F 89% 30.22 in 2.0 mi Calm Calm - N/A Rain Rain
10:19 AM 75.2 °F - 73.4 °F 94% 30.22 in 7.0 mi Calm Calm - N/A   Overcast
10:58 AM 77.0 °F - 75.2 °F 94% 30.21 in 10.0 mi South 8.1 mph - N/A   Mostly Cloudy
11:50 AM 82.4 °F 88.2 °F 73.4 °F 74% 30.19 in 10.0 mi South 10.4 mph - N/A   Mostly Cloudy
12:50 PM 80.6 °F 85.4 °F 73.4 °F 79% 30.19 in 10.0 mi SW 16.1 mph 23.0 mph N/A   Overcast
1:50 PM 77.0 °F - 73.4 °F 89% 30.18 in 10.0 mi WSW 9.2 mph - N/A   Mostly Cloudy
2:52 PM 78.8 °F - 73.4 °F 83% 30.16 in 10.0 mi SW 12.7 mph 18.4 mph N/A   Scattered Clouds
3:50 PM 80.6 °F 85.4 °F 73.4 °F 79% 30.16 in 10.0 mi Calm Calm - N/A   Scattered Clouds
4:50 PM 77.0 °F - 75.2 °F 94% 30.14 in 10.0 mi SSW 8.1 mph - N/A   Mostly Cloudy
5:53 PM 78.8 °F - 75.2 °F 89% 30.13 in 10.0 mi SW 5.8 mph - N/A   Mostly Cloudy
6:50 PM 80.6 °F 85.4 °F 73.4 °F 79% 30.12 in 10.0 mi SW 8.1 mph - N/A   Scattered Clouds
7:50 PM 80.6 °F 85.4 °F 73.4 °F 79% 30.13 in 10.0 mi Calm Calm - N/A   Scattered Clouds
8:53 PM 77.0 °F - 73.4 °F 89% 30.14 in 10.0 mi Calm Calm - N/A   Scattered Clouds
11:06 PM 74.5 °F - 74.3 °F 99% 30.16 in 10.0 mi Calm Calm - N/A   Clear
11:26 PM 74.7 °F - 74.7 °F 100% 30.16 in 10.0 mi Calm Calm - N/A   Clear
11:46 PM 74.3 °F - 74.3 °F 100% 30.16 in 10.0 mi Calm Calm - N/A   Scattered Clouds